![]() |
EMODnet Physics ERDDAP
Easier access to scientific data |
log in|
Brought to you by EMODnet Physics |
| Dataset Title: | NDBC - Collection of dew point temperature (DEWT) TimeSeries - IN SITU MultiPointTimeSeriesObservation
|
| Institution: | NDBC (Dataset ID: TS_DEWT_NDBC) |
| Information: | Summary
| License
| FGDC
| ISO 19115
| Metadata
| Background
| Subset
| Data Access Form
| Make a graph
|
| Name | Last modified | Size | Description | |
|---|---|---|---|---|
| Parent Directory | - | - | ||
| 44034_TS_DEWT_012004.nc | 26-Oct-2024 18:06 | 429623 | ||
| 44034_TS_DEWT_012005.nc | 26-Oct-2024 18:06 | 429616 | ||
| 44034_TS_DEWT_012006.nc | 26-Oct-2024 18:06 | 429618 | ||
| 44034_TS_DEWT_012007.nc | 26-Oct-2024 18:06 | 429624 | ||
| 44034_TS_DEWT_012008.nc | 26-Oct-2024 18:07 | 429611 | ||
| 44034_TS_DEWT_012011.nc | 26-Oct-2024 18:07 | 429612 | ||
| 44034_TS_DEWT_012012.nc | 26-Oct-2024 18:07 | 451186 | ||
| 44034_TS_DEWT_012013.nc | 26-Oct-2024 18:07 | 429612 | ||
| 44034_TS_DEWT_012014.nc | 26-Oct-2024 18:07 | 450388 | ||
| 44034_TS_DEWT_012015.nc | 26-Oct-2024 18:07 | 450657 | ||
| 44034_TS_DEWT_012016.nc | 26-Oct-2024 18:07 | 450840 | ||
| 44034_TS_DEWT_012017.nc | 26-Oct-2024 18:07 | 449616 | ||
| 44034_TS_DEWT_012018.nc | 26-Oct-2024 18:07 | 451226 | ||
| 44034_TS_DEWT_012019.nc | 26-Oct-2024 18:07 | 450389 | ||
| 44034_TS_DEWT_012020.nc | 26-Oct-2024 18:07 | 451276 | ||
| 44034_TS_DEWT_012021.nc | 26-Oct-2024 18:07 | 450887 | ||
| 44034_TS_DEWT_012022.nc | 26-Oct-2024 18:07 | 429834 | ||
| 44034_TS_DEWT_012023.nc | 26-Oct-2024 18:07 | 449428 | ||
| 44034_TS_DEWT_012024.nc | 26-Oct-2024 18:07 | 450023 | ||
| 44034_TS_DEWT_022004.nc | 26-Oct-2024 18:07 | 449704 | ||
| 44034_TS_DEWT_022005.nc | 26-Oct-2024 18:07 | 449323 | ||
| 44034_TS_DEWT_022006.nc | 26-Oct-2024 18:07 | 449943 | ||
| 44034_TS_DEWT_022007.nc | 26-Oct-2024 18:07 | 430271 | ||
| 44034_TS_DEWT_022008.nc | 26-Oct-2024 18:08 | 452193 | ||
| 44034_TS_DEWT_022011.nc | 26-Oct-2024 18:08 | 450590 | ||
| 44034_TS_DEWT_022012.nc | 26-Oct-2024 18:08 | 1215458 | ||
| 44034_TS_DEWT_022013.nc | 26-Oct-2024 18:08 | 1008251 | ||
| 44034_TS_DEWT_022014.nc | 26-Oct-2024 18:08 | 910516 | ||
| 44034_TS_DEWT_022015.nc | 26-Oct-2024 18:08 | 1266348 | ||
| 44034_TS_DEWT_022016.nc | 26-Oct-2024 18:08 | 446736 | ||
| 44034_TS_DEWT_022017.nc | 26-Oct-2024 18:08 | 4316962 | ||
| 44034_TS_DEWT_022019.nc | 26-Oct-2024 18:08 | 3432743 | ||
| 44034_TS_DEWT_022020.nc | 26-Oct-2024 18:08 | 429291 | ||
| 44034_TS_DEWT_022021.nc | 26-Oct-2024 18:08 | 429036 | ||
| 44034_TS_DEWT_022022.nc | 26-Oct-2024 18:08 | 429285 | ||
| 44034_TS_DEWT_022023.nc | 26-Oct-2024 18:08 | 429287 | ||
| 44034_TS_DEWT_022024.nc | 16-Sep-2024 16:51 | 429296 | ||
| 44034_TS_DEWT_032004.nc | 26-Oct-2024 18:08 | 429291 | ||
| 44034_TS_DEWT_032005.nc | 26-Oct-2024 18:08 | 449232 | ||
| 44034_TS_DEWT_032006.nc | 26-Oct-2024 18:08 | 429290 | ||
| 44034_TS_DEWT_032007.nc | 26-Oct-2024 18:08 | 448631 | ||
| 44034_TS_DEWT_032008.nc | 26-Oct-2024 18:08 | 448135 | ||
| 44034_TS_DEWT_032011.nc | 26-Oct-2024 18:08 | 448646 | ||
| 44034_TS_DEWT_032012.nc | 26-Oct-2024 18:08 | 450195 | ||
| 44034_TS_DEWT_032013.nc | 26-Oct-2024 18:08 | 449884 | ||
| 44034_TS_DEWT_032014.nc | 26-Oct-2024 18:08 | 450427 | ||
| 44034_TS_DEWT_032015.nc | 26-Oct-2024 18:08 | 449198 | ||
| 44034_TS_DEWT_032016.nc | 26-Oct-2024 18:09 | 448857 | ||
| 44034_TS_DEWT_032017.nc | 26-Oct-2024 18:09 | 429492 | ||
| 44034_TS_DEWT_032018.nc | 26-Oct-2024 18:09 | 440334 | ||
| 44034_TS_DEWT_032019.nc | 26-Oct-2024 18:09 | 448504 | ||
| 44034_TS_DEWT_032020.nc | 26-Oct-2024 18:09 | 448625 | ||
| 44034_TS_DEWT_032021.nc | 26-Oct-2024 18:09 | 448974 | ||
| 44034_TS_DEWT_032022.nc | 26-Oct-2024 18:09 | 437601 | ||
| 44034_TS_DEWT_032023.nc | 26-Oct-2024 18:09 | 429496 | ||
| 44034_TS_DEWT_042004.nc | 26-Oct-2024 18:09 | 449213 | ||
| 44034_TS_DEWT_042005.nc | 26-Oct-2024 18:09 | 1066901 | ||
| 44034_TS_DEWT_042006.nc | 26-Oct-2024 18:09 | 1102436 | ||
| 44034_TS_DEWT_042007.nc | 26-Oct-2024 18:09 | 995596 | ||
| 44034_TS_DEWT_042008.nc | 26-Oct-2024 18:09 | 1112625 | ||
| 44034_TS_DEWT_042011.nc | 26-Oct-2024 18:09 | 1109750 | ||
| 44034_TS_DEWT_042012.nc | 26-Oct-2024 18:09 | 4835204 | ||
| 44034_TS_DEWT_042013.nc | 26-Oct-2024 18:09 | 427999 | ||
| 44034_TS_DEWT_042014.nc | 26-Oct-2024 18:09 | 429598 | ||
| 44034_TS_DEWT_042015.nc | 26-Oct-2024 18:09 | 429577 | ||
| 44034_TS_DEWT_042016.nc | 26-Oct-2024 18:09 | 429625 | ||
| 44034_TS_DEWT_042017.nc | 26-Oct-2024 18:09 | 429615 | ||
| 44034_TS_DEWT_042018.nc | 26-Oct-2024 18:09 | 429295 | ||
| 44034_TS_DEWT_042019.nc | 26-Oct-2024 18:09 | 429618 | ||
| 44034_TS_DEWT_042020.nc | 26-Oct-2024 18:09 | 450981 | ||
| 44034_TS_DEWT_042021.nc | 26-Oct-2024 18:09 | 444463 | ||
| 44034_TS_DEWT_042022.nc | 26-Oct-2024 18:10 | 449788 | ||
| 44034_TS_DEWT_042023.nc | 26-Oct-2024 18:10 | 450798 | ||
| 44034_TS_DEWT_052004.nc | 26-Oct-2024 18:10 | 450695 | ||
| 44034_TS_DEWT_052005.nc | 26-Oct-2024 18:10 | 450555 | ||
| 44034_TS_DEWT_052006.nc | 26-Oct-2024 18:10 | 450764 | ||
| 44034_TS_DEWT_052007.nc | 26-Oct-2024 18:10 | 450457 | ||
| 44034_TS_DEWT_052008.nc | 26-Oct-2024 18:10 | 450435 | ||
| 44034_TS_DEWT_052011.nc | 26-Oct-2024 18:10 | 450394 | ||
| 44034_TS_DEWT_052012.nc | 26-Oct-2024 18:10 | 429840 | ||
| 44034_TS_DEWT_052013.nc | 26-Oct-2024 18:10 | 449749 | ||
| 44034_TS_DEWT_052014.nc | 26-Oct-2024 18:10 | 450332 | ||
| 44034_TS_DEWT_052015.nc | 26-Oct-2024 18:10 | 450974 | ||
| 44034_TS_DEWT_052016.nc | 26-Oct-2024 18:10 | 429565 | ||
| 44034_TS_DEWT_052017.nc | 26-Oct-2024 18:10 | 429810 | ||
| 44034_TS_DEWT_052018.nc | 26-Oct-2024 18:10 | 429834 | ||
| 44034_TS_DEWT_052019.nc | 26-Oct-2024 18:10 | 449332 | ||
| 44034_TS_DEWT_052020.nc | 26-Oct-2024 18:10 | 1241523 | ||
| 44034_TS_DEWT_052021.nc | 26-Oct-2024 18:10 | 1268743 | ||
| 44034_TS_DEWT_052022.nc | 26-Oct-2024 18:10 | 1144147 | ||
| 44034_TS_DEWT_052023.nc | 26-Oct-2024 18:10 | 1267365 | ||
| 44034_TS_DEWT_062004.nc | 26-Oct-2024 18:11 | 1265860 | ||
| 44034_TS_DEWT_062005.nc | 26-Oct-2024 18:11 | 623950 | ||
| 44034_TS_DEWT_062006.nc | 26-Oct-2024 18:11 | 5478747 | ||
| 44034_TS_DEWT_062007.nc | 26-Oct-2024 18:11 | 429287 | ||
| 44034_TS_DEWT_062008.nc | 26-Oct-2024 18:11 | 429296 | ||
| 44034_TS_DEWT_062011.nc | 26-Oct-2024 18:11 | 429281 | ||
| 44034_TS_DEWT_062012.nc | 26-Oct-2024 18:11 | 429291 | ||
| 44034_TS_DEWT_062013.nc | 26-Oct-2024 18:11 | 429298 | ||
| 44034_TS_DEWT_062014.nc | 26-Oct-2024 18:11 | 429293 | ||
| 44034_TS_DEWT_062015.nc | 26-Oct-2024 18:11 | 429286 | ||
| 44034_TS_DEWT_062016.nc | 26-Oct-2024 18:11 | 448561 | ||
| 44034_TS_DEWT_062017.nc | 26-Oct-2024 18:11 | 449150 | ||
| 44034_TS_DEWT_062018.nc | 26-Oct-2024 18:11 | 448806 | ||
| 44034_TS_DEWT_062019.nc | 26-Oct-2024 18:11 | 448788 | ||
| 44034_TS_DEWT_062020.nc | 26-Oct-2024 18:11 | 449352 | ||
| 44034_TS_DEWT_062021.nc | 26-Oct-2024 18:11 | 448479 | ||
| 44034_TS_DEWT_062022.nc | 26-Oct-2024 18:11 | 449667 | ||
| 44034_TS_DEWT_062023.nc | 26-Oct-2024 18:11 | 449534 | ||
| 44034_TS_DEWT_072004.nc | 26-Oct-2024 18:12 | 449136 | ||
| 44034_TS_DEWT_072005.nc | 26-Oct-2024 18:12 | 449205 | ||
| 44034_TS_DEWT_072006.nc | 26-Oct-2024 18:12 | 429490 | ||
| 44034_TS_DEWT_072007.nc | 26-Oct-2024 18:12 | 449262 | ||
| 44034_TS_DEWT_072008.nc | 26-Oct-2024 18:12 | 449817 | ||
| 44034_TS_DEWT_072011.nc | 26-Oct-2024 18:12 | 449057 | ||
| 44034_TS_DEWT_072012.nc | 26-Oct-2024 18:12 | 429494 | ||
| 44034_TS_DEWT_072013.nc | 26-Oct-2024 18:12 | 429497 | ||
| 44034_TS_DEWT_072014.nc | 26-Oct-2024 18:12 | 449571 | ||
| 44034_TS_DEWT_072015.nc | 26-Oct-2024 18:12 | 1029624 | ||
| 44034_TS_DEWT_072016.nc | 26-Oct-2024 18:12 | 1111018 | ||
| 44034_TS_DEWT_072017.nc | 26-Oct-2024 18:12 | 995720 | ||
| 44034_TS_DEWT_072018.nc | 26-Oct-2024 18:12 | 1115300 | ||
| 44034_TS_DEWT_072019.nc | 26-Oct-2024 18:12 | 1113735 | ||
| 44034_TS_DEWT_072020.nc | 26-Oct-2024 18:12 | 5155771 | ||
| 44034_TS_DEWT_072021.nc | 26-Oct-2024 18:12 | 423812 | ||
| 44034_TS_DEWT_072022.nc | 26-Oct-2024 18:12 | 429587 | ||
| 44034_TS_DEWT_072023.nc | 26-Oct-2024 18:12 | 429174 | ||
| 44034_TS_DEWT_082004.nc | 26-Oct-2024 18:12 | 429613 | ||
| 44034_TS_DEWT_082005.nc | 26-Oct-2024 18:13 | 429612 | ||
| 44034_TS_DEWT_082006.nc | 26-Oct-2024 18:13 | 429623 | ||
| 44034_TS_DEWT_082007.nc | 26-Oct-2024 18:13 | 446548 | ||
| 44034_TS_DEWT_082011.nc | 26-Oct-2024 18:13 | 450451 | ||
| 44034_TS_DEWT_082012.nc | 26-Oct-2024 18:13 | 448954 | ||
| 44034_TS_DEWT_082013.nc | 26-Oct-2024 18:13 | 451292 | ||
| 44034_TS_DEWT_082014.nc | 26-Oct-2024 18:13 | 449680 | ||
| 44034_TS_DEWT_082015.nc | 26-Oct-2024 18:13 | 450508 | ||
| 44034_TS_DEWT_082016.nc | 26-Oct-2024 18:13 | 450645 | ||
| 44034_TS_DEWT_082017.nc | 26-Oct-2024 18:13 | 449902 | ||
| 44034_TS_DEWT_082018.nc | 26-Oct-2024 18:13 | 451112 | ||
| 44034_TS_DEWT_082019.nc | 26-Oct-2024 18:13 | 449771 | ||
| 44034_TS_DEWT_082020.nc | 26-Oct-2024 18:13 | 449542 | ||
| 44034_TS_DEWT_082021.nc | 26-Oct-2024 18:13 | 429836 | ||
| 44034_TS_DEWT_082022.nc | 26-Oct-2024 18:13 | 450023 | ||
| 44034_TS_DEWT_082023.nc | 26-Oct-2024 18:14 | 449845 | ||
| 44034_TS_DEWT_092004.nc | 26-Oct-2024 18:14 | 450351 | ||
| 44034_TS_DEWT_092005.nc | 26-Oct-2024 18:14 | 422791 | ||
| 44034_TS_DEWT_092006.nc | 26-Oct-2024 18:14 | 429835 | ||
| 44034_TS_DEWT_092007.nc | 26-Oct-2024 18:14 | 429838 | ||
| 44034_TS_DEWT_092011.nc | 26-Oct-2024 18:14 | 451042 | ||
| 44034_TS_DEWT_092012.nc | 26-Oct-2024 18:14 | 1264318 | ||
| 44034_TS_DEWT_092013.nc | 26-Oct-2024 18:14 | 1108196 | ||
| 44034_TS_DEWT_092014.nc | 26-Oct-2024 18:14 | 1164659 | ||
| 44034_TS_DEWT_092015.nc | 26-Oct-2024 18:14 | 1266622 | ||
| 44034_TS_DEWT_092016.nc | 26-Oct-2024 18:14 | 1265053 | ||
| 44034_TS_DEWT_092017.nc | 26-Oct-2024 18:14 | 1236508 | ||
| 44034_TS_DEWT_092018.nc | 26-Oct-2024 18:14 | 4728571 | ||
| 44034_TS_DEWT_092019.nc | 26-Oct-2024 18:14 | 423300 | ||
| 44034_TS_DEWT_092020.nc | 26-Oct-2024 18:14 | 429611 | ||
| 44034_TS_DEWT_092021.nc | 26-Oct-2024 18:14 | 429595 | ||
| 44034_TS_DEWT_092022.nc | 26-Oct-2024 18:14 | 429619 | ||
| 44034_TS_DEWT_092023.nc | 26-Oct-2024 18:14 | 429615 | ||
| 44034_TS_DEWT_102004.nc | 26-Oct-2024 18:15 | 432209 | ||
| 44034_TS_DEWT_102005.nc | 26-Oct-2024 18:15 | 449800 | ||
| 44034_TS_DEWT_102006.nc | 26-Oct-2024 18:15 | 449487 | ||
| 44034_TS_DEWT_102007.nc | 26-Oct-2024 18:15 | 419780 | ||
| 44034_TS_DEWT_102011.nc | 26-Oct-2024 18:15 | 451064 | ||
| 44034_TS_DEWT_102012.nc | 26-Oct-2024 18:15 | 449758 | ||
| 44034_TS_DEWT_102013.nc | 26-Oct-2024 18:15 | 450700 | ||
| 44034_TS_DEWT_102014.nc | 26-Oct-2024 18:15 | 451548 | ||
| 44034_TS_DEWT_102015.nc | 26-Oct-2024 18:15 | 451226 | ||
| 44034_TS_DEWT_102016.nc | 26-Oct-2024 18:15 | 450194 | ||
| 44034_TS_DEWT_102017.nc | 26-Oct-2024 18:15 | 431411 | ||
| 44034_TS_DEWT_102018.nc | 26-Oct-2024 18:15 | 450726 | ||
| 44034_TS_DEWT_102019.nc | 26-Oct-2024 18:15 | 429834 | ||
| 44034_TS_DEWT_102020.nc | 26-Oct-2024 18:15 | 450417 | ||
| 44034_TS_DEWT_102021.nc | 26-Oct-2024 18:15 | 449502 | ||
| 44034_TS_DEWT_102022.nc | 26-Oct-2024 18:15 | 450613 | ||
| 44034_TS_DEWT_102023.nc | 26-Oct-2024 18:15 | 427835 | ||
| 44034_TS_DEWT_112004.nc | 26-Oct-2024 18:15 | 429836 | ||
| 44034_TS_DEWT_112005.nc | 26-Oct-2024 18:15 | 429837 | ||
| 44034_TS_DEWT_112006.nc | 26-Oct-2024 18:15 | 450744 | ||
| 44034_TS_DEWT_112007.nc | 26-Oct-2024 18:15 | 1266622 | ||
| 44034_TS_DEWT_112011.nc | 26-Oct-2024 18:16 | 1265594 | ||
| 44034_TS_DEWT_112012.nc | 26-Oct-2024 18:16 | 1265592 | ||
| 44034_TS_DEWT_112013.nc | 26-Oct-2024 18:16 | 1267941 | ||
| 44034_TS_DEWT_112014.nc | 26-Oct-2024 18:16 | 1265873 | ||
| 44034_TS_DEWT_112015.nc | 26-Oct-2024 18:16 | 1264510 | ||
| 44034_TS_DEWT_112016.nc | 26-Oct-2024 18:16 | 5666039 | ||
| 44034_TS_DEWT_112017.nc | 26-Oct-2024 18:16 | 429267 | ||
| 44034_TS_DEWT_112018.nc | 26-Oct-2024 18:16 | 429294 | ||
| 44034_TS_DEWT_112019.nc | 26-Oct-2024 18:16 | 429080 | ||
| 44034_TS_DEWT_112020.nc | 26-Oct-2024 18:16 | 429288 | ||
| 44034_TS_DEWT_112021.nc | 26-Oct-2024 18:16 | 429289 | ||
| 44034_TS_DEWT_112022.nc | 26-Oct-2024 18:16 | 449584 | ||
| 44034_TS_DEWT_112023.nc | 26-Oct-2024 18:16 | 448474 | ||
| 44034_TS_DEWT_122004.nc | 26-Oct-2024 18:16 | 449779 | ||
| 44034_TS_DEWT_122005.nc | 26-Oct-2024 18:16 | 448645 | ||
| 44034_TS_DEWT_122006.nc | 26-Oct-2024 18:16 | 449168 | ||
| 44034_TS_DEWT_122007.nc | 26-Oct-2024 18:16 | 449443 | ||
| 44034_TS_DEWT_122011.nc | 26-Oct-2024 18:16 | 449188 | ||
| 44034_TS_DEWT_122012.nc | 26-Oct-2024 18:16 | 444563 | ||
| 44034_TS_DEWT_122013.nc | 26-Oct-2024 18:17 | 449149 | ||
| 44034_TS_DEWT_122014.nc | 26-Oct-2024 18:17 | 449636 | ||
| 44034_TS_DEWT_122015.nc | 26-Oct-2024 18:17 | 429355 | ||
| 44034_TS_DEWT_122016.nc | 26-Oct-2024 18:17 | 438064 | ||
| 44034_TS_DEWT_122017.nc | 26-Oct-2024 18:17 | 429491 | ||
| 44034_TS_DEWT_122018.nc | 26-Oct-2024 18:17 | 449564 | ||
| 44034_TS_DEWT_122019.nc | 26-Oct-2024 18:17 | 448979 | ||
| 44034_TS_DEWT_122020.nc | 26-Oct-2024 18:17 | 448021 | ||
| 44034_TS_DEWT_122021.nc | 26-Oct-2024 18:17 | 449513 | ||
| 44034_TS_DEWT_122022.nc | 26-Oct-2024 18:17 | 429496 | ||
| 44034_TS_DEWT_122023.nc | 26-Oct-2024 18:17 | 429491 | ||